Wind_Speed
11 11 12 13 13 14 15 15 15 15 14 14 12 11 10 9 8 7 6 5 4 3 2 4 6 7 9 11 12 12 12 12 12 12 13 12 12 12 12 12 11 11 10
10 10 11 11 12 13 14 14 14 14 14 13 13 12 10 9 8 7 7 5 4 3 2 3 4 5 6 8 9 10 11 11 11 11 12 13 13 13 13 13 12 12 11
9 8 9 10 10 11 12 13 13 13 13 13 12 11 11 10 9 8 7 6 4 3 2 2 3 4 5 7 8 9 10 10 10 10 11 13 13 13 14 13 13 12 12
7 7 7 8 9 9 10 11 12 12 12 12 11 11 10 9 8 8 7 6 5 3 2 0 1 3 4 6 7 8 9 9 9 10 10 11 11 11 12 12 12 11 11
6 5 5 6 7 7 8 9 9 10 10 10 10 10 9 9 8 7 6 5 4 4 3 2 2 3 4 5 6 7 8 9 8 9 9 9 9 9 10 10 10 9 9
4 3 3 4 5 5 6 6 7 8 8 8 8 8 8 8 7 7 6 5 5 4 4 3 3 3 3 5 6 7 7 8 8 8 8 7 7 7 8 8 8 8 8
2 2 2 2 2 3 3 4 5 5 6 6 7 7 7 6 6 6 6 6 5 5 4 4 3 3 3 4 5 6 6 6 6 7 7 7 7 7 6 6 6 6 6
1 1 1 1 0 0 1 2 2 3 4 4 5 5 6 6 6 6 6 5 5 5 5 4 4 4 4 4 5 5 5 5 5 6 6 6 7 7 6 5 4 5 5
2 3 3 3 3 2 2 2 3 3 4 4 5 5 5 5 5 5 5 6 5 5 5 5 4 4 4 4 5 4 4 4 5 5 5 5 6 6 5 4 5 5 5
5 5 5 5 5 5 5 5 5 5 5 6 6 6 6 6 6 6 6 6 6 6 5 5 5 5 4 4 4 4 4 4 4 4 5 5 5 5 4 4 4 4 4
7 7 7 7 7 7 8 8 7 8 8 8 8 8 8 8 8 8 7 7 7 7 6 6 6 5 5 4 4 4 3 4 4 4 5 5 5 5 5 5 5 5 4
10 10 10 10 10 10 11 10 10 10 10 10 10 10 10 10 10 10 10 9 9 8 8 7 7 6 6 6 5 4 4 4 4 4 5 5 5 5 5 5 5 5 5
14 13 13 13 13 13 13 13 13 13 13 13 12 12 12 12 12 12 12 12 11 11 10 9 8 8 8 8 7 6 5 4 4 4 5 5 5 5 6 6 6 6 6
17 17 17 17 16 16 17 17 17 16 15 15 15 14 14 14 14 14 14 14 14 13 12 12 11 10 10 10 9 8 7 6 5 5 6 6 6 6 6 7 7 7 7
21 21 21 21 21 20 19 19 19 19 18 17 16 15 15 16 16 16 16 16 16 16 15 14 13 13 12 12 11 10 9 8 7 7 7 7 7 7 7 7 8 8 8
24 24 24 24 24 24 23 22 22 21 20 19 18 17 17 18 18 18 18 18 17 17 17 17 16 15 14 14 13 12 11 10 9 9 9 9 9 9 8 8 9 9 9
29 28 28 27 26 26 26 25 25 24 22 22 21 21 20 20 20 19 19 19 19 19 18 18 18 17 16 16 16 15 14 13 12 11 11 11 10 10 10 9 10 10 10
32 32 32 32 31 29 28 28 27 26 25 25 24 24 23 22 22 22 21 20 21 20 20 20 19 19 19 18 17 17 16 14 14 14 13 13 13 12 12 11 11 11 11
36 35 35 35 35 34 32 31 29 29 28 27 26 25 26 26 25 23 23 23 23 22 21 21 21 21 20 20 19 18 18 17 16 16 16 15 15 14 14 13 13 12 12
38 38 37 38 38 37 36 35 33 32 31 30 29 29 28 27 27 26 26 26 25 25 23 22 23 23 22 21 20 20 20 20 19 18 18 18 17 16 16 15 14 14 14
42 40 40 39 38 39 39 39 37 35 35 34 32 30 29 28 29 28 27 27 27 26 25 24 24 24 23 23 23 22 22 21 21 20 20 20 20 18 18 17 16 15 15
42 43 42 41 41 41 41 40 39 38 37 37 35 34 33 32 32 31 30 29 29 28 27 26 25 25 24 25 25 24 23 23 23 23 22 22 22 21 20 19 18 17 16
41 42 41 41 41 40 40 40 39 38 38 37 37 36 35 34 33 32 32 31 28 27 27 27 27 26 26 26 26 25 25 25 24 24 24 24 24 23 22 21 20 20 18
38 39 38 38 38 39 39 39 39 39 38 37 37 36 36 35 35 33 31 31 31 30 29 28 30 29 28 28 27 27 27 26 26 25 26 26 26 26 25 24 23 22 20
33 32 33 34 34 35 36 36 36 36 36 37 36 36 36 36 35 35 34 33 31 31 30 30 29 29 30 29 28 28 28 28 28 28 28 29 29 28 27 26 25 24 23
26 27 29 30 31 31 32 32 33 33 34 35 35 34 34 34 34 34 33 33 32 30 30 30 29 29 29 30 29 29 29 29 29 30 29 30 30 30 29 28 27 26 25
Wind_Direction
84 81 76 73 71 69 70 72 73 74 74 75 76 76 77 78 79 79 83 93 101 122 169 196 207 220 232 235 240 248 255 256 258 256 255 256 261 266 272 274 275 277 281
86 82 78 73 70 67 67 67 69 70 70 70 71 72 72 73 74 74 77 85 96 109 142 185 216 228 237 244 252 256 261 265 262 263 266 263 266 272 273 274 273 273 274
88 84 80 74 69 66 64 64 64 65 65 64 64 65 67 68 68 67 69 73 84 98 124 173 220 238 249 257 261 264 266 266 264 271 275 271 270 273 276 274 272 271 270
92 87 82 77 71 66 63 60 59 60 60 59 59 59 60 61 62 61 60 60 61 66 73 95 253 259 265 270 272 270 269 271 271 275 278 278 276 277 281 278 271 267 264
98 94 88 80 71 65 61 59 56 54 53 53 52 52 52 52 53 54 54 51 46 41 33 16 333 301 287 282 280 276 273 273 276 280 282 282 281 282 283 283 272 262 262
107 104 95 85 74 64 59 54 51 49 46 44 43 42 40 40 41 41 43 42 38 29 20 12 355 332 309 295 289 282 275 273 275 280 281 280 286 292 288 282 270 259 261
129 129 116 97 78 64 54 46 40 38 35 33 31 29 26 25 25 26 27 28 27 22 16 9 359 347 333 314 300 291 282 276 274 279 278 280 285 292 288 284 274 262 260
194 218 227 239 274 343 11 13 13 11 8 6 5 6 6 5 5 6 6 7 9 11 10 5 356 345 337 325 314 307 299 285 276 275 276 278 281 287 284 280 281 266 265
262 256 257 261 265 270 278 292 306 317 323 325 328 332 337 340 341 344 346 347 350 352 354 352 347 341 334 323 317 315 308 293 282 279 279 280 283 288 288 282 282 279 269
276 266 259 260 264 266 268 273 280 287 294 299 303 306 308 310 313 315 319 322 326 330 334 335 334 335 327 317 317 317 312 302 290 283 283 284 287 290 286 279 283 289 279
272 271 270 266 264 264 266 268 271 275 280 285 290 294 295 294 295 296 299 301 304 307 311 314 316 316 314 308 310 315 311 306 292 283 280 280 283 286 283 278 279 282 285
272 271 269 267 267 267 267 266 267 270 273 278 282 285 288 288 288 289 289 289 290 291 294 298 298 296 296 298 297 299 301 301 294 284 280 280 282 284 286 284 279 278 276
271 270 267 266 267 267 266 266 264 265 269 272 275 279 281 283 284 285 285 285 284 284 284 286 287 284 284 287 290 290 291 289 289 285 281 278 279 279 280 281 280 278 275
268 268 268 267 265 266 266 264 263 265 266 268 270 273 275 278 280 280 280 281 281 280 279 279 280 278 276 278 281 282 283 279 279 282 280 277 277 275 275 277 277 277 276
266 265 264 265 263 262 262 263 264 264 263 264 267 272 273 273 275 276 277 277 277 277 275 273 273 274 273 272 272 274 276 276 273 271 272 271 272 272 273 275 274 273 272
265 264 265 264 263 260 258 258 259 261 260 262 266 268 271 271 271 272 273 274 274 274 274 272 271 270 270 269 267 267 268 270 271 268 266 266 267 269 269 272 271 271 271
264 262 263 263 263 261 258 255 254 256 259 261 262 264 267 268 269 270 270 271 273 272 272 272 270 267 267 266 263 262 263 264 266 268 267 266 265 265 265 267 269 270 271
264 263 263 263 261 260 259 258 256 256 258 259 260 262 266 269 270 268 267 270 272 272 272 270 267 264 264 265 263 262 262 262 262 265 266 265 264 263 263 264 266 266 268
265 264 263 262 261 261 261 261 260 257 259 260 260 262 264 266 268 269 269 269 270 271 271 268 264 264 263 262 261 261 261 261 261 264 263 262 262 261 261 261 263 263 265
267 264 263 262 260 258 258 259 260 259 259 259 260 260 262 265 267 267 270 268 268 267 267 264 263 264 263 261 259 259 260 260 261 261 260 259 259 258 258 259 260 262 263
270 268 266 265 262 261 259 258 257 258 258 259 258 258 260 262 264 266 269 267 267 265 264 264 262 262 263 261 258 257 258 259 260 260 258 257 256 257 258 258 260 261 262
272 270 268 267 264 262 261 259 257 256 255 256 255 257 258 259 263 268 267 266 266 263 263 263 259 260 262 262 259 258 258 258 259 259 257 255 254 255 257 259 260 262 263
274 271 270 268 265 263 263 260 258 257 256 255 255 254 256 258 261 264 265 264 263 263 262 260 259 257 259 261 259 257 259 259 259 259 257 255 254 254 256 260 262 263 264
276 273 270 269 266 265 265 263 261 259 257 256 256 255 255 257 259 261 263 264 263 262 262 259 255 256 256 257 256 257 256 258 260 259 256 255 255 256 257 259 262 263 264
277 274 270 269 268 266 264 263 262 261 258 258 257 255 255 255 256 259 261 262 262 261 260 259 257 256 256 255 256 255 255 257 259 259 256 254 254 255 256 258 260 262 264
283 279 275 272 270 267 263 262 262 261 259 258 257 256 255 255 256 259 261 262 262 263 261 259 259 259 257 255 255 254 254 256 258 258 257 254 252 253 254 256 258 261 263
Height
5908 5908 5908 5907 5906 5906 5905 5904 5904 5903 5903 5903 5904 5904 5904 5904 5904 5905 5905 5906 5906 5907 5908 5909 5910 5911 5912 5913 5914 5915 5915 5916 5916 5917 5918 5918 5919 5919 5920 5919 5920 5920 5920
5909 5909 5909 5909 5908 5907 5907 5906 5905 5905 5905 5905 5905 5905 5905 5905 5906 5906 5906 5906 5907 5907 5908 5909 5910 5911 5912 5913 5913 5914 5914 5915 5915 5916 5916 5917 5917 5918 5918 5918 5918 5918 5919
5910 5910 5910 5910 5910 5909 5908 5908 5907 5907 5907 5907 5907 5906 5906 5907 5907 5907 5907 5907 5908 5908 5908 5909 5910 5911 5911 5912 5913 5913 5913 5914 5914 5914 5915 5915 5915 5916 5916 5916 5916 5916 5917
5911 5911 5911 5911 5911 5910 5910 5909 5909 5909 5908 5908 5908 5908 5908 5908 5908 5908 5908 5908 5908 5908 5909 5909 5910 5910 5911 5911 5911 5912 5912 5912 5913 5913 5913 5913 5914 5914 5914 5913 5914 5914 5915
5912 5912 5912 5912 5912 5911 5911 5911 5910 5910 5910 5909 5909 5909 5909 5909 5909 5908 5908 5908 5908 5909 5909 5909 5909 5910 5910 5910 5910 5911 5911 5911 5912 5912 5912 5912 5912 5912 5912 5912 5912 5913 5913
5912 5913 5913 5912 5912 5912 5912 5911 5911 5911 5911 5911 5910 5910 5910 5910 5909 5909 5909 5909 5909 5909 5909 5909 5909 5909 5909 5909 5909 5909 5909 5910 5911 5911 5911 5911 5911 5911 5910 5910 5910 5911 5912
5913 5913 5913 5913 5913 5912 5912 5912 5912 5912 5911 5911 5911 5911 5911 5911 5910 5910 5910 5909 5909 5909 5909 5909 5909 5909 5909 5909 5908 5908 5908 5909 5909 5910 5910 5910 5910 5910 5910 5909 5909 5910 5910
5913 5913 5913 5913 5912 5912 5912 5912 5911 5911 5911 5911 5911 5911 5911 5911 5911 5910 5910 5910 5909 5909 5909 5908 5908 5908 5908 5908 5908 5907 5908 5908 5908 5909 5909 5909 5909 5909 5909 5909 5909 5909 5909
5912 5912 5912 5912 5912 5911 5911 5911 5911 5911 5911 5911 5911 5911 5910 5910 5910 5910 5910 5909 5909 5909 5908 5908 5908 5907 5907 5907 5907 5907 5907 5907 5907 5907 5908 5908 5908 5908 5908 5908 5908 5908 5909
5912 5911 5911 5910 5910 5910 5910 5910 5910 5909 5909 5909 5909 5909 5909 5909 5909 5909 5909 5909 5909 5908 5908 5908 5907 5907 5907 5906 5906 5906 5906 5906 5906 5907 5907 5907 5907 5907 5907 5908 5908 5908 5908
5910 5909 5909 5908 5908 5908 5908 5908 5908 5908 5907 5907 5907 5907 5907 5907 5907 5907 5907 5907 5907 5907 5907 5907 5906 5906 5906 5905 5905 5905 5905 5905 5905 5906 5906 5906 5906 5906 5906 5907 5907 5907 5907
5908 5907 5906 5906 5906 5905 5905 5905 5905 5905 5905 5905 5905 5905 5905 5905 5905 5905 5905 5905 5905 5905 5905 5905 5905 5905 5904 5904 5904 5904 5904 5904 5904 5905 5905 5905 5906 5906 5906 5906 5906 5906 5906
5905 5904 5903 5903 5903 5902 5902 5902 5902 5902 5902 5902 5902 5902 5902 5902 5902 5902 5903 5903 5903 5903 5903 5903 5903 5903 5902 5902 5903 5903 5903 5903 5903 5904 5904 5904 5904 5905 5905 5905 5905 5905 5905
5901 5900 5900 5899 5899 5899 5899 5898 5898 5898 5898 5898 5898 5898 5899 5899 5899 5899 5899 5900 5900 5900 5900 5900 5900 5900 5900 5900 5901 5901 5901 5901 5902 5902 5902 5903 5903 5903 5903 5904 5904 5904 5904
5896 5896 5895 5895 5894 5894 5894 5894 5894 5894 5894 5894 5894 5894 5894 5895 5895 5896 5896 5896 5896 5897 5897 5897 5897 5897 5897 5897 5898 5898 5899 5899 5900 5900 5900 5901 5901 5901 5902 5902 5902 5902 5902
5891 5890 5889 5889 5889 5889 5889 5889 5889 5889 5888 5889 5889 5889 5890 5890 5891 5891 5891 5892 5892 5892 5893 5893 5893 5893 5894 5894 5895 5895 5896 5896 5897 5897 5898 5898 5899 5899 5900 5900 5900 5900 5901
5885 5884 5883 5883 5882 5882 5882 5882 5882 5882 5882 5883 5884 5884 5884 5885 5885 5886 5886 5887 5887 5888 5888 5888 5889 5889 5890 5890 5891 5892 5892 5893 5894 5894 5895 5895 5896 5897 5897 5897 5898 5898 5898
5877 5876 5876 5876 5876 5876 5875 5875 5875 5876 5876 5877 5877 5878 5878 5879 5879 5880 5881 5881 5882 5882 5883 5883 5884 5885 5885 5886 5887 5887 5888 5889 5890 5891 5891 5892 5893 5894 5894 5895 5895 5895 5895
5868 5868 5867 5867 5867 5867 5868 5868 5869 5869 5870 5870 5871 5872 5872 5873 5873 5874 5875 5876 5876 5877 5878 5878 5879 5880 5880 5881 5882 5883 5884 5885 5886 5887 5888 5888 5889 5890 5891 5891 5892 5892 5892
5857 5857 5857 5858 5858 5859 5859 5860 5861 5862 5863 5864 5865 5865 5866 5866 5867 5867 5868 5869 5870 5871 5872 5873 5873 5874 5875 5876 5877 5878 5879 5880 5881 5882 5883 5884 5885 5886 5887 5887 5888 5889 5889
5847 5846 5846 5847 5848 5849 5850 5851 5852 5854 5855 5856 5857 5857 5858 5859 5860 5861 5862 5862 5863 5864 5865 5866 5867 5868 5869 5870 5872 5873 5873 5874 5875 5877 5878 5879 5880 5881 5882 5883 5884 5884 5885
5835 5835 5835 5835 5837 5838 5840 5841 5843 5844 5846 5847 5849 5849 5850 5851 5853 5854 5855 5855 5856 5857 5858 5859 5860 5862 5863 5864 5865 5866 5868 5870 5870 5871 5872 5873 5874 5876 5877 5878 5879 5879 5880
5824 5823 5824 5825 5826 5827 5829 5830 5833 5835 5836 5838 5840 5841 5842 5843 5845 5846 5847 5848 5849 5850 5851 5852 5854 5855 5856 5857 5858 5860 5861 5862 5864 5865 5866 5867 5868 5870 5871 5872 5873 5874 5875
5813 5813 5813 5814 5815 5816 5818 5820 5822 5824 5827 5828 5830 5832 5834 5835 5836 5837 5839 5840 5841 5842 5844 5845 5846 5847 5849 5850 5851 5853 5854 5855 5857 5858 5859 5860 5861 5863 5864 5866 5867 5868 5869
5804 5803 5803 5804 5805 5806 5807 5809 5812 5814 5816 5818 5820 5823 5825 5826 5828 5829 5831 5833 5834 5835 5837 5838 5838 5839 5841 5842 5844 5845 5847 5848 5849 5851 5852 5854 5855 5856 5858 5859 5861 5861 5862
5796 5795 5795 5795 5796 5797 5798 5800 5802 5804 5806 5808 5810 5813 5815 5817 5819 5821 5822 5824 5826 5827 5828 5830 5831 5832 5833 5834 5836 5837 5839 5840 5842 5843 5844 5846 5848 5850 5851 5852 5854 5855 5856